Location: Berlin
(52.5171°N, 13.3759°E)
Time: 08:49:48
(UTC+02:00)

ISS - Visible Passes

Search period start: 28 May 2017 00:00
Search period end: 07 June 2017 00:00
Orbit: 402 x 408 km, 51.6° (Epoch: 28 May)

Date Brightness Start Highest point End Pass type
(mag) Time Alt. Az. Time Alt. Az. Time Alt. Az.
28 May -4.0 00:06:57 10° W 00:10:15 78° S 00:13:33 10° E visible
28 May -3.5 01:43:27 10° W 01:46:36 43° SSW 01:47:25 34° SSE visible
28 May -3.9 23:14:55 10° W 23:18:14 77° S 23:21:32 10° E visible
29 May -3.8 00:51:23 10° W 00:54:38 56° SSW 00:56:01 30° SE visible
29 May -1.5 02:28:18 10° W 02:28:37 12° WSW 02:28:37 12° WSW visible
29 May -3.9 22:22:55 10° WSW 22:26:12 69° S 22:29:29 10° E visible
29 May -3.9 23:59:20 10° W 00:02:38 69° S 00:05:08 16° ESE visible
30 May -2.3 01:35:58 10° W 01:37:45 22° WSW 01:37:45 22° WSW visible
30 May -3.9 23:07:16 10° W 23:10:34 77° S 23:13:52 10° E visible
31 May -3.3 00:43:48 10° W 00:46:53 38° SSW 00:47:04 37° SSW visible
31 May -3.9 22:15:12 10° W 22:18:31 78° S 22:21:49 10° E visible
31 May -3.6 23:51:41 10° W 23:54:54 51° SSW 23:56:30 25° SE visible
01 Jun -1.4 01:28:45 10° WSW 01:29:08 12° WSW 01:29:08 12° WSW visible
01 Jun -3.8 22:59:35 10° W 23:02:52 64° SSW 23:05:58 11° ESE visible
02 Jun -2.4 00:36:18 10° W 00:38:36 23° SW 00:38:36 23° SW visible
02 Jun -3.8 22:07:29 10° W 22:10:47 74° S 22:14:05 10° ESE visible
02 Jun -3.0 23:44:02 10° W 23:47:04 33° SSW 23:48:06 27° SSE visible
03 Jun -3.4 22:51:52 10° W 22:55:03 46° SSW 22:57:39 14° SE visible
04 Jun -1.6 00:29:11 10° WSW 00:30:17 13° SW 00:30:17 13° SW visible
04 Jun -2.2 23:36:32 10° W 23:39:05 21° SSW 23:39:51 19° SSW visible
05 Jun -2.7 22:44:10 10° W 22:47:07 30° SSW 22:49:26 14° SSE visible
06 Jun -1.5 23:29:39 10° WSW 23:30:55 12° SW 23:31:42 11° SSW visible
